Claremore, OK

8:06 AM CDT on July 27, 2016 (GMT -0500)
Claremore Regional

Weather History for KGCM - October, 2012

Change the Weather History Date:

Sunday, October 21, 2012

  Actual Average (KTUL) Record (KTUL)
Temperature  
Mean Temperature 72 °F 60 °F  
Max Temperature 80 °F 72 °F 92 °F (1978)
Min Temperature 64 °F 49 °F 30 °F (1917)
Degree Days  
Heating Degree Days 0 6  
Month to date heating degree days 87  
Since 1 July heating degree days 111  
Cooling Degree Days 7 1  
Month to date cooling degree days 52  
Year to date cooling degree days 2017  
Growing Degree Days 22 (Base 50)    
Moisture  
Dew Point 62 °F    
Average Humidity 71    
Maximum Humidity 83    
Minimum Humidity 60    
Precipitation  
Precipitation 0.00 in 0.13 in 2.98 in (1972)
Month to date precipitation 2.66  
Year to date precipitation 34.40  
Sea Level Pressure  
Sea Level Pressure 29.81 in    
Wind  
Wind Speed 13 mph (SSE)    
Max Wind Speed 24 mph    
Max Gust Speed 32 mph    
Visibility 10 miles    
Events      
T = Trace of Precipitation, MM = Missing Value Source: NWS Daily Summary

Daily Weather History Graph

Daily Weather History Graph

Search for Another Location

Airport or City:

Trip Planner

Search our weather history database for the weather conditions in past years. The results will help you decide how hot, cold, wet, or windy it might be!

Date:

Astronomy

Oct. 21, 2012 Rise Set
Actual Time 7:34 AM CDT 6:37 PM CDT
Civil Twilight 7:08 AM CDT 7:03 PM CDT
Nautical Twilight 6:38 AM CDT 7:33 PM CDT
Astronomical Twilight 6:08 AM CDT 8:03 PM CDT
Moon 1:53 PM CDT (10/21) No Moon Set
Length of Visible Light 11h 54m
Length of Day
11h 02m
Waxing Crescent, 45% of the Moon is Illuminated
Oct 21
Waxing Crescent
Oct 21
First Quarter
Oct 29
Full
Nov 6
Last Quarter
Nov 13
New

Hourly Weather History & Observations

Time (CDT) Temp. Heat Index Dew Point Humidity Pressure Visibility Wind Dir Wind Speed Gust Speed Precip Events Conditions
12:55 AM 68.0 °F - 53.6 °F 60% 29.80 in 10.0 mi SE 9.2 mph - N/A   Clear
1:15 AM 64.4 °F - 53.6 °F 68% 29.80 in 10.0 mi SE 10.4 mph - N/A   Clear
1:35 AM 64.4 °F - 53.6 °F 68% 29.80 in 10.0 mi SE 8.1 mph - N/A   Clear
1:55 AM 64.4 °F - 53.6 °F 68% 29.80 in 10.0 mi SSE 9.2 mph - N/A   Clear
2:15 AM 66.2 °F - 55.4 °F 68% 29.80 in 10.0 mi SE 9.2 mph - N/A   Clear
2:35 AM 64.4 °F - 55.4 °F 73% 29.80 in 10.0 mi SE 9.2 mph - N/A   Clear
2:55 AM 64.4 °F - 55.4 °F 73% 29.80 in 10.0 mi SE 9.2 mph - N/A   Clear
3:15 AM 64.4 °F - 55.4 °F 73% 29.79 in 10.0 mi SE 9.2 mph - N/A   Clear
3:35 AM 64.4 °F - 55.4 °F 73% 29.79 in 10.0 mi SSE 8.1 mph - N/A   Clear
3:55 AM 66.2 °F - 55.4 °F 68% 29.79 in 10.0 mi SSE 10.4 mph - N/A   Clear
4:15 AM 64.4 °F - 55.4 °F 73% 29.79 in 10.0 mi SSE 9.2 mph - N/A   Clear
4:35 AM 64.4 °F - 55.4 °F 73% 29.79 in 10.0 mi SSE 9.2 mph - N/A   Clear
5:15 AM 64.4 °F - 57.2 °F 77% 29.80 in 10.0 mi SSE 10.4 mph - N/A   Clear
5:35 AM 64.4 °F - 57.2 °F 77% 29.80 in 10.0 mi SSE 10.4 mph - N/A   Clear
5:55 AM 64.4 °F - 57.2 °F 77% 29.80 in 10.0 mi SSE 9.2 mph - N/A   Clear
6:35 AM 64.4 °F - 59.0 °F 83% 29.81 in 10.0 mi SSE 11.5 mph - N/A   Scattered Clouds
6:55 AM 64.4 °F - 59.0 °F 83% 29.81 in 10.0 mi SSE 10.4 mph 17.3 mph N/A   Scattered Clouds
7:15 AM 66.2 °F - 60.8 °F 83% 29.81 in 10.0 mi SSE 12.7 mph 17.3 mph N/A   Mostly Cloudy
7:35 AM 68.0 °F - 60.8 °F 78% 29.81 in 10.0 mi SSE 13.8 mph 17.3 mph N/A   Overcast
7:55 AM 68.0 °F - 60.8 °F 78% 29.81 in 10.0 mi SSE 11.5 mph 17.3 mph N/A   Overcast
8:15 AM 68.0 °F - 60.8 °F 78% 29.82 in 10.0 mi SSE 15.0 mph 19.6 mph N/A   Overcast
8:35 AM 68.0 °F - 62.6 °F 83% 29.82 in 10.0 mi SSE 15.0 mph 18.4 mph N/A   Overcast
8:55 AM 69.8 °F - 62.6 °F 78% 29.83 in 10.0 mi South 18.4 mph 24.2 mph N/A   Mostly Cloudy
9:15 AM 69.8 °F - 62.6 °F 78% 29.83 in 10.0 mi South 17.3 mph 26.5 mph N/A   Mostly Cloudy
9:35 AM 71.6 °F - 62.6 °F 73% 29.83 in 10.0 mi South 17.3 mph 25.3 mph N/A   Overcast
9:55 AM 71.6 °F - 62.6 °F 73% 29.84 in 10.0 mi South 17.3 mph 26.5 mph N/A   Overcast
10:15 AM 73.4 °F - 64.4 °F 73% 29.84 in 10.0 mi South 19.6 mph 28.8 mph N/A   Mostly Cloudy
10:35 AM 73.4 °F - 64.4 °F 73% 29.85 in 10.0 mi South 17.3 mph 25.3 mph N/A   Mostly Cloudy
11:35 AM 73.4 °F - 64.4 °F 73% 29.85 in 10.0 mi South 19.6 mph 26.5 mph N/A   Mostly Cloudy
12:35 PM 77.0 °F - 66.2 °F 69% 29.85 in 10.0 mi South 19.6 mph 27.6 mph N/A   Mostly Cloudy
12:55 PM 77.0 °F - 66.2 °F 69% 29.84 in 10.0 mi South 19.6 mph 26.5 mph N/A   Mostly Cloudy
1:15 PM 78.8 °F - 68.0 °F 69% 29.83 in 10.0 mi South 23.0 mph 29.9 mph N/A   Mostly Cloudy
1:35 PM 78.8 °F - 68.0 °F 69% 29.82 in 10.0 mi South 19.6 mph 27.6 mph N/A   Mostly Cloudy
1:55 PM 78.8 °F - 68.0 °F 69% 29.81 in 10.0 mi South 24.2 mph 32.2 mph N/A   Mostly Cloudy
2:15 PM 78.8 °F - 66.2 °F 65% 29.80 in 10.0 mi South 21.9 mph 31.1 mph N/A   Mostly Cloudy
2:35 PM 80.6 °F 83.2 °F 68.0 °F 65% 29.80 in 10.0 mi South 21.9 mph 29.9 mph N/A   Mostly Cloudy
2:55 PM 80.6 °F 82.7 °F 66.2 °F 61% 29.79 in 10.0 mi South 24.2 mph 32.2 mph N/A   Mostly Cloudy
3:15 PM 78.8 °F - 66.2 °F 65% 29.79 in 10.0 mi South 19.6 mph 29.9 mph N/A   Mostly Cloudy
3:35 PM 78.8 °F - 66.2 °F 65% 29.79 in 10.0 mi South 20.7 mph 27.6 mph N/A   Mostly Cloudy
3:55 PM 80.6 °F 82.7 °F 66.2 °F 61% 29.79 in 10.0 mi South 18.4 mph 26.5 mph N/A   Mostly Cloudy
4:15 PM 80.6 °F 82.7 °F 66.2 °F 61% 29.78 in 10.0 mi South 17.3 mph 26.5 mph N/A   Mostly Cloudy
4:35 PM 78.8 °F - 66.2 °F 65% 29.78 in 10.0 mi South 15.0 mph 26.5 mph N/A   Scattered Clouds
5:35 PM 78.8 °F - 66.2 °F 65% 29.78 in 10.0 mi SSE 16.1 mph 21.9 mph N/A   Clear
5:55 PM 78.8 °F - 66.2 °F 65% 29.78 in 10.0 mi SSE 13.8 mph 20.7 mph N/A   Scattered Clouds
6:15 PM 78.8 °F - 66.2 °F 65% 29.79 in 10.0 mi South 13.8 mph 20.7 mph N/A   Mostly Cloudy
6:35 PM 78.8 °F - 66.2 °F 65% 29.80 in 10.0 mi SSE 12.7 mph 17.3 mph N/A   Mostly Cloudy
6:55 PM 78.8 °F - 66.2 °F 65% 29.80 in 10.0 mi South 12.7 mph 17.3 mph N/A   Mostly Cloudy
7:15 PM 77.0 °F - 66.2 °F 69% 29.80 in 10.0 mi SSE 9.2 mph - N/A   Mostly Cloudy
7:35 PM 77.0 °F - 66.2 °F 69% 29.81 in 10.0 mi SSE 11.5 mph 16.1 mph N/A   Mostly Cloudy
8:15 PM 77.0 °F - 64.4 °F 65% 29.83 in 10.0 mi South 13.8 mph 19.6 mph N/A   Mostly Cloudy
8:35 PM 77.0 °F - 64.4 °F 65% 29.83 in 10.0 mi SSE 12.7 mph - N/A   Overcast
8:55 PM 77.0 °F - 64.4 °F 65% 29.83 in 10.0 mi SSE 12.7 mph - N/A   Overcast
9:15 PM 77.0 °F - 66.2 °F 69% 29.84 in 10.0 mi SSE 12.7 mph 19.6 mph N/A   Mostly Cloudy
9:55 PM 75.2 °F - 66.2 °F 73% 29.84 in 10.0 mi SSE 13.8 mph 19.6 mph N/A   Scattered Clouds
10:15 PM 73.4 °F - 64.4 °F 73% 29.85 in 10.0 mi SSE 16.1 mph 24.2 mph N/A   Clear
10:35 PM 73.4 °F - 64.4 °F 73% 29.85 in 10.0 mi South 13.8 mph 21.9 mph N/A   Clear
11:15 PM 73.4 °F - 64.4 °F 73% 29.85 in 10.0 mi SSE 13.8 mph 23.0 mph N/A   Clear
11:55 PM 73.4 °F - 64.4 °F 73% 29.86 in 10.0 mi SSE 15.0 mph 19.6 mph N/A   Scattered Clouds